GSAT0101 (GALILEO-PFM) 1 37846U 11060A 26053.46432651 -.00000082 00000+0 00000+0 0 9992 2 37846 57.0318 344.8758 0003975 357.0591 2.9533 1.70475478 89166 GSAT0102 (GALILEO-FM2) 1 37847U 11060B 26060.06318653 -.00000106 00000+0 00000+0 0 9999 2 37847 57.0301 344.6971 0005422 341.2092 154.1953 1.70475778 89286 GSAT0103 (GALILEO-FM3) 1 38857U 12055A 26061.13039064 .00000014 00000+0 00000+0 0 9998 2 38857 55.7369 104.4827 0005349 284.8926 75.1340 1.70473355 83189 GSAT0201 (GALILEO 5) 1 40128U 14050A 26062.23675925 -.00000027 00000+0 00000+0 0 9998 2 40128 48.9889 277.7718 1657553 175.2875 186.5034 1.85520013 76352 GSAT0202 (GALILEO 6) 1 40129U 14050B 26061.95370111 -.00000024 00000+0 00000+0 0 9993 2 40129 49.0058 276.8679 1658464 176.0142 185.5046 1.85520711 78514 GSAT0203 (GALILEO 7) 1 40544U 15017A 26058.52158611 -.00000103 00000+0 00000+0 0 9994 2 40544 56.8234 344.5881 0005161 295.0116 64.9415 1.70475495 67337 GSAT0204 (GALILEO 8) 1 40545U 15017B 26058.19060141 -.00000102 00000+0 00000+0 0 9997 2 40545 56.8295 344.6151 0004389 286.3298 73.6287 1.70475370 30371 GSAT0205 (GALILEO 9) 1 40889U 15045A 26043.95434207 .00000078 00000+0 00000+0 0 9996 2 40889 53.6403 225.6057 0359599 59.9658 303.5577 1.67410800 64211 GSAT0206 (GALILEO 10) 1 40890U 15045B 26061.69895769 .00000010 00000+0 00000+0 0 9999 2 40890 54.9811 224.5416 0003832 50.0037 309.9714 1.70473640 65226 GSAT0209 (GALILEO 12) 1 41174U 15079A 26061.86713421 .00000015 00000+0 00000+0 0 9990 2 41174 55.7583 104.1775 0004785 323.3337 36.7202 1.70474497 62961 GSAT0208 (GALILEO 11) 1 41175U 15079B 26062.08735471 .00000015 00000+0 00000+0 0 9995 2 41175 55.7569 104.1685 0004164 323.7694 36.2890 1.70474318 63384 GSAT0211 (GALILEO 14) 1 41549U 16030A 26061.62472216 .00000011 00000+0 00000+0 0 9998 2 41549 55.1322 224.6224 0003631 25.7212 334.2388 1.70473766 60858 GSAT0210 (GALILEO 13) 1 41550U 16030B 26061.29541970 .00000012 00000+0 00000+0 0 9998 2 41550 55.1304 224.6297 0001173 192.8511 167.0898 1.70473885 60846 GSAT0207 (GALILEO 15) 1 41859U 16069A 26059.22748061 .00000008 00000+0 00000+0 0 9997 2 41859 55.4267 104.1007 0005031 309.1503 50.8842 1.70474383 57546 GSAT0212 (GALILEO 16) 1 41860U 16069B 26062.01395955 .00000014 00000+0 00000+0 0 9997 2 41860 55.4261 104.0186 0003622 335.7588 24.3106 1.70474657 57847 GSAT0213 (GALILEO 17) 1 41861U 16069C 26058.27531726 .00000004 00000+0 00000+0 0 9998 2 41861 55.4260 104.1303 0005130 291.6331 68.3872 1.70474834 57644 GSAT0214 (GALILEO 18) 1 41862U 16069D 26059.00795760 .00000007 00000+0 00000+0 0 9994 2 41862 55.4250 104.1026 0004132 296.1582 63.8775 1.70474701 57785 GSAT0215 (GALILEO 19) 1 43055U 17079A 26061.84428198 .00000010 00000+0 00000+0 0 9999 2 43055 55.1089 224.4297 0000612 12.6993 347.2429 1.70474455 51178 GSAT0216 (GALILEO 20) 1 43056U 17079B 26060.96235113 .00000013 00000+0 00000+0 0 9998 2 43056 55.1088 224.4540 0001688 322.1798 37.7539 1.70474524 51175 GSAT0217 (GALILEO 21) 1 43057U 17079C 26062.35625513 .00000009 00000+0 00000+0 0 9996 2 43057 55.1084 224.4135 0002107 356.8681 3.0693 1.70474491 51185 GSAT0218 (GALILEO 22) 1 43058U 17079D 26060.22999436 .00000018 00000+0 00000+0 0 9999 2 43058 55.1053 224.4697 0001889 305.5636 54.3694 1.70474409 51170 GSAT0221 (GALILEO 25) 1 43564U 18060A 26059.54670036 -.00000105 00000+0 00000+0 0 9995 2 43564 57.2051 344.7173 0005804 306.7848 53.1689 1.70475369 47315 GSAT0222 (GALILEO 26) 1 43565U 18060B 26055.66007047 -.00000092 00000+0 00000+0 0 9996 2 43565 57.2093 344.8256 0004435 285.4820 74.4799 1.70474973 47292 GSAT0219 (GALILEO 23) 1 43566U 18060C 26053.53475141 -.00000082 00000+0 00000+0 0 9994 2 43566 57.2094 344.8846 0005774 308.6957 51.2673 1.70475208 47235 GSAT0220 (GALILEO 24) 1 43567U 18060D 26058.44840234 -.00000102 00000+0 00000+0 0 9992 2 43567 57.2075 344.7516 0005301 308.5821 51.3768 1.70475159 47302 GSAT0223 (GALILEO 27) 1 49809U 21116A 26048.03988929 -.00000078 00000+0 00000+0 0 9993 2 49809 57.2005 344.9238 0002865 278.1950 264.6358 1.70475508 26130 GSAT0224 (GALILEO 28) 1 49810U 21116B 26054.89517960 -.00000088 00000+0 00000+0 0 9990 2 49810 57.1984 344.7369 0002182 291.9502 250.7131 1.70475193 26278 GSAT0225 (GALILEO 29) 1 59598U 24079A 26062.23239214 .00000013 00000+0 00000+0 0 9992 2 59598 55.0491 104.0400 0002532 257.0391 101.5580 1.70474849 11501 GSAT0227 (GALILEO 30) 1 59600U 24079C 26060.07188623 .00000010 00000+0 00000+0 0 9990 2 59600 55.0426 104.0995 0000415 85.7874 274.2997 1.70474778 11525 GSAT0232 (GALILEO 32) 1 61182U 24167A 26048.66150565 .00000069 00000+0 00000+0 0 9995 2 61182 55.2225 224.5881 0003600 296.6314 116.1306 1.70443939 8265 GSAT0226 (GALILEO 31) 1 61183U 24167B 26061.41649845 .00000011 00000+0 00000+0 0 9995 2 61183 55.2184 224.2466 0001610 129.2375 282.9718 1.70474130 9035 GSAT0233 (GALILEO 33) 1 67160U 25302A 26044.50000000 -.00000008 00000+0 00000+0 0 9990 2 67160 54.3935 105.2952 0003011 207.0582 359.4109 1.70474578 20 GSAT0234 (GALILEO 34) 1 67162U 25302C 26044.50000000 -.00000008 00000+0 00000+0 0 9992 2 67162 54.3967 105.2938 0003081 266.8423 119.7309 1.70475065 127